EST,Max TemperatureF,Mean TemperatureF,Min TemperatureF,Max Dew PointF,MeanDew PointF,Min DewpointF,Max Humidity, Mean Humidity, Min Humidity, Max Sea Level PressureIn, Mean Sea Level PressureIn, Min Sea Level PressureIn, Max VisibilityMiles, Mean VisibilityMiles, Min VisibilityMiles, Max Wind SpeedMPH, Mean Wind SpeedMPH, Max Gust SpeedMPH,PrecipitationIn, CloudCover, Events, WindDirDegrees
2011-11-1,50,44,37,37,34,31,89,72,59,30.40,30.37,30.35,,,,13,8,23,0.00,,,50
2011-11-2,54,44,34,39,35,31,92,75,45,30.42,30.35,30.25,,,,13,9,,0.00,,,61
2011-11-3,60,49,39,44,40,36,96,75,49,30.25,30.07,29.91,,,,16,13,24,0.00,,,221
2011-11-4,48,40,34,44,29,19,93,60,33,30.26,30.05,29.90,,,,20,13,32,0.00,,,332
2011-11-5,46,36,28,26,23,21,78,58,44,30.50,30.41,30.26,,,,13,9,20,0.00,,,345
2011-11-6,55,44,35,38,25,18,89,51,25,30.53,30.45,30.36,,,,18,13,24,0.00,,,231
2011-11-7,61,50,39,39,37,34,97,65,36,30.34,30.27,30.22,,,,18,14,21,0.00,,,234
2011-11-8,66,57,48,47,44,37,74,62,44,30.29,30.25,30.22,,,,16,11,,0.00,,,250
2011-11-9,66,58,50,53,48,45,100,74,47,30.25,30.18,30.08,,,,17,10,24,0.00,,,191
2011-11-10,57,54,53,57,55,53,100,100,97,30.06,30.01,29.96,,,,13,11,,0.00,,,155
2011-11-11,44,,44,36,36,36,73,73,73,29.49,29.49,29.49,,,,16,16,24,0.00,,,300
2011-11-12,,,,,,,,,,,,,,,,,,,,,,
2011-11-13,,,,,,,,,,,,,,,,,,,,,,
2011-11-14,66,60,53,53,48,43,97,71,48,29.92,29.83,29.73,,,,20,16,29,0.00,,,195
2011-11-15,66,60,55,53,50,44,87,73,58,29.98,29.82,29.71,,,,21,15,31,0.00,,,243
2011-11-16,57,54,52,54,51,44,100,88,64,29.99,29.86,29.71,,,,15,6,18,0.81,,,170
2011-11-17,53,44,34,52,38,29,100,85,62,29.90,29.80,29.72,,,,18,10,28,0.13,,,309
2011-11-18,42,36,30,26,22,20,76,59,43,30.41,30.24,29.93,,,,17,14,32,0.00,,,269
2011-11-19,51,42,34,44,27,20,90,57,32,30.40,30.33,30.24,,,,25,19,36,0.00,,,208
2011-11-20,63,56,48,46,44,40,86,69,50,30.22,30.09,30.01,,,,29,20,38,0.00,,,221
2011-11-21,54,45,36,44,32,27,76,68,57,30.38,30.29,30.10,,,,18,11,26,0.00,,,49
2011-11-22,45,40,34,37,31,26,93,73,58,30.43,30.37,30.22,,,,14,4,,0.08,,,90
2011-11-23,45,38,30,45,37,27,100,95,85,30.17,29.80,29.60,,,,28,18,41,1.51,,,26
2011-11-24,43,36,28,31,28,26,92,77,58,30.20,30.12,29.97,,,,16,8,21,0.00,,,335
2011-11-25,59,48,37,37,35,31,79,61,44,30.13,30.08,30.03,,,,17,14,23,0.00,,,238
2011-11-26,61,54,46,37,35,33,66,51,39,30.23,30.17,30.07,,,,16,11,,0.00,,,260
2011-11-27,55,48,42,50,43,33,96,78,45,30.24,30.19,30.14,,,,23,9,31,0.00,,,191
2011-11-28,63,58,52,51,49,48,93,75,58,30.15,30.13,30.11,,,,22,18,32,0.00,,,211
2011-11-29,64,58,52,58,54,50,100,87,61,30.14,30.02,29.71,,,,21,14,30,0.01,,,160
2011-11-30,62,52,41,62,40,30,100,71,50,29.86,29.70,29.62,,,,30,20,46,0.74,,,222